Regional Weather Roundup
Issued by NWS Newport/Morehead, NC

Current Version | Previous Version | Graphics & Text | Print | Product List | Glossary Off
Versions: 1 2 3 4 5 6 7 8 9 10 11 12 13 14 15 16 17 18 19 20 21 22 23 24 25 26 27 28 29 30 31 32 33 34 35 36 37 38 39 40 41 42 43 44 45 46 47 48 49 50
000 ASUS42 KMHX 261010 RWRMHX WEATHER ROUNDUP FOR EASTERN NORTH CAROLINA NATIONAL WEATHER SERVICE NEWPORT/MOREHEAD CITY NC 500 AM EST FRI DEC 26 2014 NOTE: "FAIR" INDICATES FEW OR NO CLOUDS BELOW 12,000 FEET WITH NO SIGNIFICANT WEATHER AND/OR OBSTRUCTIONS TO VISIBILITY NCZ015>017-031-032-045>047-102-103-261100- NORTH COAST CITY SKY/WX TMP DP RH WIND PRES REMARKS EDENTON N/A 34 32 94 CALM 30.27R ELIZABETH CITY CLEAR 37 32 82 CALM 30.26R KITTY HAWK SUNNY 44 39 83 CALM 30.25R MANTEO CLEAR 37 37 100 CALM 30.26R $$ NCZ045>047-081-094-103-104-261100- CENTRAL COAST CITY SKY/WX TMP DP RH WIND PRES REMARKS FRISCO CLEAR 43 41 93 N5 30.26R SWANQUARTER N/A 37 N/A N/A CALM 30.24R $$ NCZ095-097-098-100-101-261100- SOUTHERN COAST CITY SKY/WX TMP DP RH WIND PRES REMARKS BEAUFORT CLEAR 36 35 96 CALM 30.27S CEDAR ISLAND N/A 48 N/A N/A N5 30.30S JACKSONVILLE CLEAR 37 36 96 CALM 30.27R PINEY ISLAND SUNNY 47 41 80 CALM 30.27R WILMINGTON CLEAR 37 35 92 CALM 30.26S $$ NCZ011>013-027>030-043-044-078>080-089-090>093-098-261100- COASTAL PLAIN CITY SKY/WX TMP DP RH WIND PRES REMARKS AHOSKIE CLEAR 30 29 96 CALM 30.29R CLINTON CLEAR 33 33 100 CALM 30.29R ELIZABETHTOWN CLEAR 35 34 96 CALM 30.28R GOLDSBORO FOG 34 34 99 CALM 30.26S VSB 1/4 GREENVILLE FOG 32 32 100 CALM 30.29R VSB 3/4 HAVELOCK CLEAR 36 33 89 CALM 30.28S KENANSVILLE CLEAR 32 32 100 CALM 30.29R KINSTON CLEAR 32 32 99 CALM 30.29R NEW BERN FOG 36 33 89 CALM 30.28S VSB 1/2 RICHLANDS CLEAR 32 28 86 CALM 30.28R ROCKY MOUNT CLEAR 33 31 92 CALM 30.29R WASHINGTON CLEAR 32 32 97 CALM 30.28R WHITEVILLE CLEAR 37 36 95 CALM 30.27R $$ AMZ130-135-150-152-154-156-158-170-250-252-270-ANZ085-086-088-633-658-670-261100- MARINE OBSERVATIONS STATION/POSITION TIME TEMP WIND PRES WAVE SWELL AIR SEA DIR/SP/G HT/PER HT/PER (UTC) (F) (DEG/KT/KT) (MB) (FT/S) (FT/S) CHESAPEAKE LIGHT 0900 48 40/ 11/ 12 1024.5 64 E VA BEACH 1000 51 52 50/ 6/ 8 1023.7 3/ 7 3/ 7 DUCK 1000 48 50 10/ 3/ 4 1023.7 2 E DUCK 1000 50 N/A 2/ 9 10 NE DUCK 1000 50 N/A 2/ 8 OREGON INLET 1000 45 54 320/ 3/ 4 1024.4 13E OREGON INLT 1000 50 N/A 3/ 8 2/11 HATTERAS CG 1000 51 57 10/ 5/ 6 1024.9 DIAMOND BUOY 1000 54 1024.7 4/ 8 17 S OCRACOKE NOT AVBL CAPE LOOKOUT 0900 51 30/ 7/ 7 1024.7 BEAUFORT LAB 1000 45 55 10/ 3/ 3 1023.9 30 SE NEW RIVER 1000 56 60 50/ 8/ 10 1025.1 3/ 7 3/ 7 5 SE WRIGHTSVLE NOT AVBL 225 S CAPE HAT 0932 67 72 40/ 10/ 12 1023.4 6/ 7 7/ 7 41 SE CHARLESTON 1000 60 71 40/ 6/ 8 1023.9 2/ 7 2/ 7 $$

USA.gov is the U.S. government's official web portal to all federal, state and local government web resources and services.